[[{"header":{"parameterUnit":"m.s-1","parameterCategory":1,"la1":30.2991,"la2":30.254,"lo1":-89.0895,"lo2":-89.0444,"dy":0.0017,"dx":0.0017,"nx":28,"ny":28,"refTime":"2024-03-08T09:00:00:Z","depth":0,"parameterNumber":2,"parameterNumberName":"U-component_of_WINDS"},"data":[0,0,0,0,0,0,0,0,0,0,0,0,0,0,0,0,0,0,0,0,0,0,0,0,0,0,0,0,0,0,0,0,0,0,0,0,0,0,0,0,0,0,0,0,0,0,0,0,0,0,0,0,0,0,0,0,0,0,3.1849,3.1849,0,3.1926,3.1926,3.1927,3.1895,3.1893,3.1892,3.189,3.1968,3.1972,3.1976,0,0,0,0,0,0,0,0,0,0,0,0,0,3.1673,3.1676,3.1848,3.1849,3.185,3.1925,3.1926,3.1927,3.1896,3.1893,3.1891,3.1889,3.1967,3.1971,3.1976,0,0,0,0,0,0,0,0,0,0,0,0,0,3.1749,3.1677,3.1848,3.1844,3.1844,3.1925,3.1926,3.1928,3.1896,3.1893,3.189,3.1888,3.1965,3.1971,3.1976,3.2067,0,0,3.1994,3.1996,0,0,0,0,0,0,0,0,3.1745,3.1756,3.1843,3.1844,3.1845,3.1898,3.1893,3.1974,3.1897,3.1876,3.189,3.1887,3.1947,3.1954,3.1974,3.207,3.2074,3.1994,3.1998,3.2,3.2002,0,0,0,0,0,0,0,3.174,3.1752,3.1879,3.1845,3.1845,3.1837,3.1845,3.1908,3.1926,3.1878,3.1876,3.1885,3.1947,3.1969,3.1976,3.2075,3.1994,3.1999,3.2003,3.2005,3.2249,3.2252,0,0,0,0,0,0,3.1735,3.1748,3.1876,3.1881,3.1787,3.1843,3.1851,3.1884,3.1925,3.1929,3.1888,3.1883,3.1961,3.1969,3.1979,3.2088,3.2,3.2006,3.2009,3.2246,3.225,3.2253,0,0,0,0,0,0,3.1731,3.1746,3.1873,3.1814,3.183,3.1849,3.1885,3.1887,3.1909,3.1933,3.1936,3.1907,3.1959,3.1971,3.2045,3.209,3.2008,3.2013,3.2242,3.2247,3.2251,3.2307,0,0,0,0,0,0,3.1726,3.1745,3.178,3.1815,3.1833,3.1939,3.1888,3.189,3.1919,3.1914,3.1952,3.1955,3.1958,3.2037,3.2051,3.2097,3.2018,3.2239,3.2245,3.225,3.2301,3.2313,3.2323,0,0,0,0,0,3.172,3.1792,3.1782,3.1798,3.1877,3.1942,3.1952,3.1953,3.1923,3.1958,3.1973,3.1954,3.2082,3.2045,3.206,3.2108,3.2236,3.2243,3.225,3.2296,3.231,3.2322,0,0,0,0,0,0,3.1762,3.1797,3.1786,3.1872,3.1904,3.1936,3.1981,3.1968,3.201,3.2004,3.2003,3.2012,3.2089,3.2106,3.2063,3.2198,3.2154,3.2165,3.2185,3.2198,3.2209,3.2204,3.2023,0,0,0,0,0,3.1781,3.1831,3.1859,3.1932,3.1949,3.1962,3.199,3.1988,3.2022,3.2035,3.2056,3.2089,3.2136,3.2168,3.2213,3.2302,3.231,3.2343,3.2354,3.2362,3.2372,3.2421,3.2436,3.2276,3.2276,3.2276,0,0,3.1821,3.1847,3.1878,3.1941,3.1966,3.2018,3.1974,3.203,3.2069,3.2044,3.2116,3.2132,3.2168,3.2251,3.2288,3.2267,3.2418,3.2371,3.2378,3.2383,3.243,3.2445,3.2458,3.228,3.228,3.2279,0,0,3.1922,3.1946,3.201,3.2036,3.2074,3.2082,3.2097,3.2132,3.2141,3.2214,3.2196,3.2241,3.2323,3.235,3.2374,3.2484,3.2469,3.2499,3.2556,3.2604,3.2616,3.2628,3.2668,3.2682,3.2508,3.2508,3.2508,0,3.1968,3.2045,3.2044,3.2103,3.2131,3.211,3.2175,3.22,3.2251,3.2271,3.2246,3.2349,3.2372,3.2461,3.2487,3.2507,3.2525,3.2495,3.2615,3.2626,3.2636,3.2675,3.269,3.2511,3.2511,3.2511,3.251,0,3.21,3.2154,3.2201,3.2251,3.2284,3.2346,3.2354,3.2387,3.2382,3.2393,3.2466,3.2493,3.2543,3.2564,3.2559,3.2652,3.2638,3.2614,3.2571,3.2655,3.2691,3.2706,3.2516,3.2515,3.2514,3.2513,0,0,3.2231,3.2279,3.2297,3.2319,3.2359,3.2401,3.2461,3.251,3.254,3.2575,3.2625,3.2695,3.2673,3.2701,3.2698,3.274,3.2826,3.2711,3.2712,3.2733,3.2931,3.295,3.2967,3.2815,3.2818,3.282,3.2929,0,3.2335,3.2442,3.2442,3.254,3.259,3.2571,3.2623,3.2653,3.2664,3.2708,3.2719,3.2769,3.2736,3.2753,3.2793,3.2807,3.2866,3.2799,3.2863,3.2865,3.2856,3.2986,3.3006,3.3107,3.2943,3.2945,3.2947,0,3.2472,3.2513,3.2616,3.2649,3.267,3.2717,3.2762,3.2804,3.2837,3.2843,3.2873,3.2865,3.2925,3.2878,3.2962,3.2916,3.2942,3.2953,3.2957,3.2964,3.2912,3.2998,3.3139,3.3155,3.2969,3.2967,3.2965,0,3.2559,3.2639,3.2711,3.2731,3.2771,3.2804,3.2822,3.2853,3.2883,3.2922,3.2941,3.2986,3.3012,3.3047,3.305,3.3016,3.3135,3.3088,3.3141,3.3141,3.3169,3.3167,3.3318,3.3183,3.3182,3.3182,3.3182,0,3.2677,3.2741,3.2751,3.2795,3.2866,3.2865,3.2936,3.2951,3.2978,3.3025,3.3009,3.3054,3.3055,3.31,3.3102,3.3172,3.3183,3.3189,3.3189,3.3191,3.3191,3.3209,3.3203,3.3186,3.3185,3.3184,3.3184,0,3.2787,3.2796,3.2873,3.2905,3.2914,3.2965,3.2992,3.3034,3.3043,3.3102,3.3116,3.3131,3.3183,3.3189,3.3249,3.3251,3.3335,3.3327,3.3324,3.3324,3.3377,3.3372,3.3546,3.3569,3.3417,3.3419,3.342,0,3.2862,3.2911,3.2948,3.2979,3.2999,3.3048,3.3078,3.3079,3.3111,3.3152,3.319,3.324,3.3281,3.3365,3.338,3.3426,3.342,3.3478,3.3427,3.3428,3.3423,3.342,3.3426,3.3488,3.349,3.3491,3.3492,0,3.2996,3.2998,3.3043,3.3089,3.3126,3.3162,3.3196,3.3222,3.3226,3.3263,3.3317,3.3348,3.341,3.346,3.3506,3.3523,3.3509,3.3508,3.3523,3.3526,3.3523,3.3527,3.3353,3.3504,3.3503,3.3502,3.3502,3.3501,3.3092,3.3135,3.3168,3.3218,3.3244,3.3276,3.3317,3.3332,3.3376,3.3427,3.3424,3.3483,3.3514,3.3574,3.3595,3.364,3.3621,3.3643,3.3648,3.3654,3.366,3.3515,3.3648,3.3648,3.3648,3.3647,3.3647,0,3.3226,3.3246,3.3292,3.3341,3.338,3.3363,3.3399,3.3434,3.3486,3.3516,3.3557,3.3618,3.3666,3.3685,3.3733,3.3766,3.376,3.3778,3.3777,3.3781,3.3674,3.3657,3.3782,3.3782,3.3782,3.3782,3.3782,3.3782,3.3301,3.3373,3.3378,3.3463,3.3482,3.354,3.3563,3.3592,3.3616,3.3686,3.3726,3.3738,3.3764,3.3813,3.3857,3.3861,3.3879,3.3901,3.3902,3.3802,3.3789,3.3776,3.376,3.3904,3.3905,3.4006,3.4007,3.4008]},{"header":{"parameterUnit":"m.s-1","parameterCategory":1,"la1":30.2991,"la2":30.254,"lo1":-89.0895,"lo2":-89.0444,"dy":0.0017,"dx":0.0017,"nx":28,"ny":28,"refTime":"2024-03-08T09:00:00:Z","depth":0,"parameterNumber":3,"parameterNumberName":"V-component_of_WINDS"},"data":[0,0,0,0,0,0,0,0,0,0,0,0,0,0,0,0,0,0,0,0,0,0,0,0,0,0,0,0,0,0,0,0,0,0,0,0,0,0,0,0,0,0,0,0,0,0,0,0,0,0,0,0,0,0,0,0,0,0,4.0023,4.0027,0,4.0338,4.0341,4.0345,4.0421,4.0419,4.0417,4.0415,4.0742,4.0752,4.0763,0,0,0,0,0,0,0,0,0,0,0,0,0,3.9494,3.9503,4.0023,4.0027,4.0031,4.0337,4.0341,4.0346,4.0422,4.0419,4.0417,4.0414,4.0738,4.0751,4.0764,0,0,0,0,0,0,0,0,0,0,0,0,0,3.9757,3.9506,4.0022,4.0105,4.0116,4.0336,4.0341,4.0347,4.0422,4.0419,4.0416,4.0413,4.0734,4.075,4.0765,4.0926,0,0,4.0814,4.0821,0,0,0,0,0,0,0,0,3.9742,3.9777,4.0089,4.01,4.0112,4.0337,4.0275,4.0541,4.0423,4.0306,4.0415,4.0411,4.061,4.0636,4.0702,4.0941,4.0956,4.0815,4.0825,4.0832,4.0837,0,0,0,0,0,0,0,3.9724,3.9764,4.0148,4.0094,4.0108,4.0129,4.0163,4.0325,4.0472,4.0316,4.0322,4.0358,4.0616,4.0686,4.071,4.096,4.0815,4.0829,4.0839,4.0845,4.1352,4.1355,0,0,0,0,0,0,3.9691,3.9748,4.0138,4.0157,3.9916,4.0141,4.0179,4.0268,4.047,4.0498,4.0361,4.0361,4.0661,4.0691,4.0722,4.0927,4.0832,4.0847,4.0856,4.1348,4.1352,4.1357,0,0,0,0,0,0,3.9679,3.9725,4.0125,3.9954,4.0007,4.0153,4.0253,4.0276,4.0347,4.0504,4.0531,4.0406,4.0659,4.0699,4.0875,4.0939,4.0854,4.0869,4.1343,4.1349,4.1355,4.1335,0,0,0,0,0,0,3.9663,3.972,3.9781,3.9955,4.0016,4.0271,4.0257,4.0284,4.0373,4.0376,4.0553,4.058,4.066,4.0851,4.0891,4.0959,4.0881,4.1338,4.1346,4.1353,4.1331,4.134,4.1347,0,0,0,0,0,3.9644,3.9763,3.9784,3.983,4.0095,4.0275,4.031,4.0399,4.0378,4.0442,4.0544,4.0574,4.0924,4.0868,4.0914,4.0988,4.1335,4.1344,4.1352,4.1327,4.1338,4.1347,0,0,0,0,0,0,3.9595,3.9788,3.9813,3.9991,4.0116,4.0287,4.0371,4.0406,4.0541,4.0538,4.0644,4.0683,4.0853,4.0938,4.0872,4.1156,4.113,4.1148,4.1095,4.1107,4.1114,4.1092,4.0894,0,0,0,0,0,3.9604,3.9732,3.9895,4.0037,4.0098,4.0223,4.0305,4.0362,4.0497,4.055,4.0664,4.0795,4.0935,4.1025,4.1162,4.1342,4.1384,4.1416,4.1424,4.143,4.1446,4.1551,4.1568,4.1385,4.1385,4.1385,0,0,3.9626,3.9747,3.9822,4.003,4.0133,4.0266,4.0267,4.0407,4.0508,4.0572,4.0746,4.0834,4.0986,4.1166,4.1251,4.1242,4.1505,4.1441,4.1444,4.1458,4.1562,4.1579,4.1594,4.1391,4.139,4.1389,0,0,3.9734,3.9837,3.9968,4.0072,4.0228,4.0311,4.0342,4.0509,4.057,4.0745,4.0797,4.0918,4.1156,4.1264,4.135,4.1499,4.1534,4.1541,4.1585,4.1686,4.1701,4.1714,4.1771,4.179,4.1555,4.1555,4.1555,0,3.9742,3.9943,4.0032,4.017,4.0262,4.0324,4.046,4.0556,4.0749,4.0812,4.0798,4.11,4.1207,4.1414,4.1451,4.1517,4.1559,4.1523,4.1691,4.1705,4.1719,4.1775,4.1796,4.1555,4.1555,4.1555,4.1555,0,3.9946,4.0085,4.0172,4.0357,4.0458,4.0594,4.0706,4.0797,4.0846,4.0931,4.111,4.124,4.1407,4.1459,4.1508,4.1675,4.1665,4.1669,4.1646,4.1735,4.179,4.1812,4.1556,4.1555,4.1555,4.1555,0,0,4.0034,4.0266,4.0297,4.0383,4.056,4.067,4.0809,4.0971,4.1049,4.118,4.1302,4.1502,4.1508,4.1606,4.1667,4.1756,4.1871,4.1751,4.1756,4.1772,4.2067,4.2065,4.2088,4.1893,4.1897,4.19,4.2055,0,4.0167,4.0418,4.0502,4.0711,4.0842,4.0904,4.1026,4.1149,4.1232,4.1356,4.1448,4.159,4.1585,4.1645,4.1735,4.1837,4.1932,4.1827,4.2011,4.2016,4.1975,4.2116,4.2114,4.2254,4.2077,4.208,4.2083,0,4.0356,4.049,4.0711,4.0874,4.0932,4.104,4.1196,4.1313,4.1455,4.1509,4.1618,4.1673,4.1824,4.1788,4.2,4.1927,4.2007,4.2068,4.2076,4.21,4.2058,4.2147,4.23,4.2322,4.2116,4.2114,4.2111,0,4.0402,4.0637,4.0801,4.0872,4.1065,4.114,4.1224,4.1363,4.1455,4.1592,4.1653,4.1805,4.189,4.2007,4.2103,4.2068,4.2308,4.2279,4.236,4.2358,4.2411,4.2407,4.2583,4.2455,4.2455,4.2455,4.2454,0,4.0544,4.0678,4.0825,4.0926,4.1079,4.1176,4.1325,4.1413,4.1536,4.1657,4.1718,4.1831,4.1949,4.2078,4.2154,4.232,4.2356,4.2407,4.2426,4.2404,4.2398,4.2461,4.2455,4.246,4.2459,4.2458,4.2457,0,4.0623,4.0726,4.091,4.1077,4.1122,4.1228,4.1373,4.1475,4.1559,4.1712,4.1754,4.1888,4.2043,4.2149,4.2348,4.2399,4.258,4.2596,4.2532,4.2543,4.2619,4.2612,4.2845,4.2882,4.2725,4.2727,4.2728,0,4.0708,4.0813,4.0992,4.1077,4.1161,4.1297,4.1392,4.1491,4.1588,4.1758,4.184,4.1998,4.2131,4.2377,4.2493,4.2646,4.2669,4.274,4.2693,4.2668,4.2675,4.267,4.2682,4.2748,4.275,4.275,4.2751,0,4.0851,4.0897,4.103,4.1182,4.1293,4.1418,4.1543,4.1609,4.1731,4.1836,4.1995,4.2098,4.2301,4.246,4.2624,4.2713,4.2755,4.2764,4.2793,4.2773,4.2733,4.276,4.2557,4.276,4.2759,4.2758,4.2758,4.2758,4.0939,4.1036,4.1178,4.1325,4.1429,4.1545,4.165,4.1748,4.1882,4.2054,4.2105,4.2271,4.2413,4.2637,4.2729,4.2862,4.2857,4.2895,4.2906,4.2916,4.2918,4.2708,4.2892,4.2892,4.2892,4.2891,4.2891,0,4.1088,4.1182,4.1316,4.1489,4.1606,4.1631,4.1772,4.1868,4.2014,4.2141,4.227,4.2455,4.2609,4.2737,4.2897,4.2979,4.3002,4.3018,4.3016,4.3036,4.2911,4.2873,4.2997,4.2997,4.2997,4.2997,4.2997,4.2997,4.1179,4.1346,4.1409,4.1629,4.1723,4.1886,4.1965,4.2073,4.2176,4.2378,4.2506,4.2588,4.2718,4.2888,4.3031,4.3065,4.3123,4.3136,4.3174,4.3056,4.3044,4.3033,4.2998,4.3146,4.3146,4.3289,4.329,4.3291]}]]